Weather History for KSDF - May, 2014

Change the Weather History Date:

Saturday, May 10, 2014

  Actual Average Record
Temperature  
Mean Temperature 68 °F 65 °F  
Max Temperature 75 °F 76 °F 94 °F (1896)
Min Temperature 60 °F 55 °F 31 °F (1966)
Degree Days  
Heating Degree Days 0 3  
Month to date heating degree days 26 34  
Since 1 July heating degree days 4504 4059  
Cooling Degree Days 3 3  
Month to date cooling degree days 51 24  
Year to date cooling degree days 82 67  
Growing Degree Days 18 (Base 50)    
Moisture  
Dew Point 62 °F    
Average Humidity 81    
Maximum Humidity 93    
Minimum Humidity 68    
Precipitation  
Precipitation 0.85 in 0.17 in 1.74 in (1950)
Month to date precipitation 1.55 1.75  
Year to date precipitation 17.02 16.35  
Snow  
Snow 0.00 in 0.00 in - ()
Month to date snowfall 0.0 0.0  
Since 1 July snowfall 26.0 12.5  
Snow Depth 0.00 in    
Sea Level Pressure  
Sea Level Pressure 29.97 in    
Wind  
Wind Speed 8 mph (South)    
Max Wind Speed 21 mph    
Max Gust Speed 29 mph    
Visibility 8 miles    
Events Rain , Thunderstorm    
T = Trace of Precipitation, MM = Missing Value Source: NWS Daily Summary

Daily Weather History Graph

Daily Weather History Graph

Search for Another Location

Airport or City:

Trip Planner

Search our weather history database for the weather conditions in past years. The results will help you decide how hot, cold, wet, or windy it might be!

Date:

Astronomy

May. 10, 2014 Rise Set
Actual Time 6:36 AM EDT 8:42 PM EDT
Civil Twilight 6:07 AM EDT 9:11 PM EDT
Nautical Twilight 5:31 AM EDT 9:47 PM EDT
Astronomical Twilight 4:53 AM EDT 10:26 PM EDT
Moon 4:41 PM EDT (5/10) 4:05 AM EDT (5/10)
Length of Visible Light 15h 04m
Length of Day
14h 05m
Waxing Gibbous, 82% of the Moon is Illuminated
May 10
Waxing Gibbous
May 14
Full
May 21
Last Quarter
May 28
New
Jun 5
First Quarter

Hourly Weather History & Observations

Time (EDT) Temp. Dew Point Humidity Pressure Visibility Wind Dir Wind Speed Gust Speed Precip Events Conditions
12:56 AM 64.9 °F 60.1 °F 84% 29.99 in 10.0 mi West 8.1 mph - 0.03 in   Mostly Cloudy
1:56 AM 64.0 °F 61.0 °F 90% 29.96 in 10.0 mi SSE 8.1 mph - N/A   Overcast
2:04 AM 64.0 °F 61.0 °F 90% 29.97 in 4.0 mi SSE 8.1 mph - 0.02 in Rain , Thunderstorm Heavy Thunderstorms and Rain
2:21 AM 63.0 °F 62.1 °F 97% 29.96 in 10.0 mi SSE 8.1 mph - 0.06 in Rain Light Rain
2:41 AM 63.0 °F 62.1 °F 97% 29.96 in 10.0 mi SSE 8.1 mph - 0.06 in   Overcast
2:56 AM 64.0 °F 62.1 °F 93% 29.96 in 4.0 mi SSE 6.9 mph - 0.08 in Rain Rain
3:56 AM 64.9 °F 62.1 °F 90% 29.95 in 8.0 mi SSE 6.9 mph - 0.08 in Rain Light Rain
4:56 AM 66.0 °F 63.0 °F 90% 29.94 in 6.0 mi South 15.0 mph - 0.03 in Rain Light Rain
5:02 AM 64.9 °F 63.0 °F 93% 29.95 in 3.0 mi South 10.4 mph - 0.10 in Rain , Thunderstorm Light Thunderstorms and Rain
5:22 AM 64.9 °F 62.1 °F 90% 29.95 in 10.0 mi South 10.4 mph - 0.12 in Rain Light Rain
5:35 AM 64.9 °F 63.0 °F 93% 29.95 in 10.0 mi South 10.4 mph - 0.12 in Rain Light Rain
5:46 AM 64.9 °F 62.1 °F 90% 29.95 in 10.0 mi South 10.4 mph - 0.12 in Rain Light Rain
5:56 AM 64.9 °F 62.1 °F 90% 29.95 in 10.0 mi SSW 10.4 mph - 0.12 in Rain Light Rain
6:01 AM 64.9 °F 62.1 °F 90% 29.95 in 10.0 mi South 16.1 mph 21.9 mph 0.00 in Rain , Thunderstorm Light Thunderstorms and Rain
6:56 AM 64.9 °F 63.0 °F 93% 29.96 in 6.0 mi South 8.1 mph - 0.11 in Rain , Thunderstorm Light Thunderstorms and Rain
7:04 AM 64.0 °F 63.0 °F 96% 29.96 in 9.0 mi South 8.1 mph - 0.00 in Rain Light Rain
7:28 AM 64.9 °F 63.0 °F 93% 29.96 in 4.0 mi SSE 10.4 mph - 0.05 in Rain , Thunderstorm Heavy Thunderstorms and Rain
7:37 AM 64.9 °F 63.0 °F 93% 29.97 in 6.0 mi South 6.9 mph - 0.06 in Rain , Thunderstorm Light Thunderstorms and Rain
7:48 AM 64.9 °F 63.0 °F 93% 29.99 in 3.0 mi South 8.1 mph - 0.08 in Rain , Thunderstorm Light Thunderstorms and Rain
7:56 AM 64.9 °F 63.0 °F 93% 29.96 in 2.5 mi South 8.1 mph - 0.12 in Rain , Thunderstorm Light Thunderstorms and Rain
8:06 AM 64.9 °F 63.0 °F 93% 29.98 in 3.0 mi SSW 6.9 mph - 0.03 in Rain , Thunderstorm Light Thunderstorms and Rain
8:14 AM 64.9 °F 63.0 °F 93% 29.98 in 4.0 mi South 6.9 mph - 0.05 in Rain Light Rain
8:23 AM 64.9 °F 63.0 °F 93% 29.99 in 10.0 mi South 6.9 mph - 0.05 in Rain Light Rain
8:30 AM 64.9 °F 63.0 °F 93% 29.99 in 10.0 mi South 9.2 mph - 0.05 in Rain Light Rain
8:56 AM 64.9 °F 63.0 °F 93% 29.98 in 10.0 mi South 9.2 mph - 0.05 in Rain , Thunderstorm Light Thunderstorms and Rain
9:12 AM 64.9 °F 63.0 °F 93% 29.98 in 10.0 mi South 9.2 mph - 0.00 in Rain Light Rain
9:41 AM 66.0 °F 64.0 °F 93% 29.99 in 10.0 mi South 10.4 mph - 0.01 in   Overcast
9:56 AM 66.0 °F 64.0 °F 93% 29.98 in 10.0 mi South 11.5 mph - 0.01 in   Overcast
10:13 AM 66.0 °F 64.0 °F 93% 29.99 in 10.0 mi South 16.1 mph 20.7 mph N/A   Overcast
10:56 AM 66.9 °F 64.0 °F 90% 29.98 in 10.0 mi SW 9.2 mph 18.4 mph N/A   Overcast
11:56 AM 71.1 °F 63.0 °F 75% 29.95 in 10.0 mi SSW 9.2 mph - N/A   Overcast
12:56 PM 73.0 °F 64.0 °F 73% 29.95 in 10.0 mi SSW 9.2 mph - N/A   Mostly Cloudy
1:56 PM 73.9 °F 64.9 °F 73% 29.93 in 10.0 mi West 6.9 mph - 0.00 in   Overcast
2:06 PM 73.9 °F 64.9 °F 73% 29.94 in 10.0 mi SW 8.1 mph - 0.00 in Rain Light Rain
2:30 PM 73.0 °F 63.0 °F 71% 29.93 in 10.0 mi South 18.4 mph 21.9 mph 0.00 in Rain , Thunderstorm Light Thunderstorms and Rain
2:56 PM 71.1 °F 64.0 °F 78% 29.96 in 10.0 mi WNW 20.7 mph 28.8 mph 0.00 in Rain , Thunderstorm Light Thunderstorms and Rain
2:59 PM 66.9 °F 60.1 °F 79% 29.97 in 8.0 mi NW 16.1 mph 28.8 mph 0.00 in Rain , Thunderstorm Light Thunderstorms and Rain
3:21 PM 60.1 °F 55.9 °F 86% 29.98 in 2.5 mi NNW 9.2 mph - 0.03 in Rain , Thunderstorm Heavy Thunderstorms and Rain
3:25 PM 60.1 °F 57.0 °F 90% 29.98 in 1.5 mi NNW 6.9 mph - 0.07 in Rain , Thunderstorm Heavy Thunderstorms and Rain
3:35 PM 61.0 °F 59.0 °F 93% 29.98 in 5.0 mi Calm Calm - 0.22 in Rain , Thunderstorm Thunderstorms and Rain
3:52 PM 62.6 °F 60.8 °F 94% 29.99 in 10.0 mi Variable 3.5 mph - 0.22 in Rain Light Rain
3:56 PM 63.0 °F 60.1 °F 90% 29.97 in 8.0 mi East 5.8 mph - 0.22 in Rain Light Rain
4:56 PM 64.0 °F 59.0 °F 84% 29.97 in 10.0 mi Variable 4.6 mph - 0.02 in Rain Light Rain
5:56 PM 68.0 °F 61.0 °F 78% 29.96 in 10.0 mi SE 4.6 mph - 0.01 in   Scattered Clouds
6:56 PM 72.0 °F 61.0 °F 68% 29.94 in 10.0 mi Calm Calm - N/A   Scattered Clouds
7:56 PM 70.0 °F 61.0 °F 73% 29.95 in 10.0 mi West 3.5 mph - N/A   Scattered Clouds
8:56 PM 69.1 °F 62.1 °F 78% 29.97 in 10.0 mi SSE 6.9 mph - N/A   Scattered Clouds
9:56 PM 66.0 °F 62.1 °F 87% 29.99 in 10.0 mi SE 3.5 mph - N/A   Mostly Cloudy
10:56 PM 64.9 °F 62.1 °F 90% 30.00 in 7.0 mi SE 3.5 mph - N/A   Mostly Cloudy
11:56 PM 64.0 °F 62.1 °F 93% 30.01 in 8.0 mi SSE 6.9 mph - N/A   Overcast